Stations météo

réclame
Mon MeteoGroup
Angelholm, Suède (2607): Température de l'air & dewpoint: 20.09.2018 11:00:00 - 26.09.2018 11:00:00 (CEST)Angelholm, Suède (2607): Vitesse du vent: 20.09.2018 11:00:00 - 26.09.2018 11:00:00 (CEST)Angelholm, Suède (2607): Direction du vent: 20.09.2018 11:00:00 - 26.09.2018 11:00:00 (CEST)Angelholm, Suède (2607): reduced air pressure: 20.09.2018 11:00:00 - 26.09.2018 11:00:00 (CEST)Angelholm, Suède (2607): visibility: 20.09.2018 11:00:00 - 26.09.2018 11:00:00 (CEST)
Date & Time tt [°C] td [°C] ff [km/h] ff [knt] dd ppp [hPa] vv [km]
26.09.2018 11:00:00 13,0 9,0 35 19 SW - 10
26.09.2018 10:00:00 12,7 8,8 34 18 SW 1020,7 10
26.09.2018 09:00:00 12,4 8,3 31 17 SSW 1021,3 10
26.09.2018 08:00:00 12,1 8,4 28 15 S 1022,4 10
26.09.2018 07:00:00 12,0 8,5 31 17 SSW 1023,8 10
26.09.2018 06:00:00 11,7 8,9 22 12 SW 1025,1 10
26.09.2018 05:00:00 11,5 8,2 24 13 SSW 1026,0 10
26.09.2018 04:00:00 11,2 7,5 24 13 SSW 1027,2 10
26.09.2018 03:00:00 11,0 7,5 22 12 SW 1028,2 10
26.09.2018 02:00:00 10,9 7,8 22 12 SW 1029,0 10
26.09.2018 01:00:00 11,2 7,9 21 11 SW 1030,1 10
26.09.2018 00:00:00 11,9 7,8 26 14 WSW 1030,4 10
25.09.2018 23:00:00 12,6 7,5 26 14 W 1031,1 10
25.09.2018 22:00:00 12,4 7,5 18 10 SW 1031,5 10
25.09.2018 21:00:00 11,1 6,8 15 8 SSW 1032,0 10
25.09.2018 20:00:00 11,2 6,3 21 11 SW 1032,2 10
25.09.2018 19:00:00 11,8 5,9 22 12 WSW 1032,5 10
25.09.2018 18:00:00 11,7 5,3 21 11 W 1033,3 10
25.09.2018 17:00:00 12,7 5,6 21 11 W 1033,3 10
25.09.2018 16:00:00 12,3 5,7 24 13 W 1033,8 10
25.09.2018 15:00:00 12,3 4,0 22 12 W 1033,8 10
25.09.2018 14:00:00 12,4 3,6 21 11 W 1034,0 10
25.09.2018 13:00:00 12,3 3,8 24 13 WNW 1034,2 10
25.09.2018 12:00:00 12,1 3,1 18 10 WNW 1033,8 10
25.09.2018 11:00:00 12,1 1,4 15 8 NW 1033,4 10
25.09.2018 10:00:00 10,5 3,8 4 2 E 1032,6 10
25.09.2018 09:00:00 8,0 4,4 0 0 N 1032,0 10
25.09.2018 08:00:00 4,7 2,6 2 1 - 1031,2 10
25.09.2018 07:00:00 6,7 2,0 11 6 WNW 1030,5 10
25.09.2018 06:00:00 2,6 1,1 4 2 - 1029,6 10
25.09.2018 05:00:00 3,9 1,1 13 7 NW 1029,2 10
25.09.2018 04:00:00 1,5 0,3 4 2 - 1028,7 10
25.09.2018 03:00:00 0,4 -0,7 8 4 ESE 1028,1 10
25.09.2018 02:00:00 1,6 0,1 5 3 ESE 1027,8 10
25.09.2018 01:00:00 2,7 0,3 0 0 N 1027,3 10
25.09.2018 00:00:00 4,5 0,8 8 4 NW 1026,6 10
24.09.2018 23:00:00 6,0 1,7 11 6 WNW 1025,7 10
24.09.2018 22:00:00 5,8 1,9 9 5 WNW 1025,0 10
24.09.2018 21:00:00 7,0 2,1 16 9 NW 1024,1 10
24.09.2018 20:00:00 7,5 1,8 18 10 NW 1023,2 10
24.09.2018 19:00:00 8,6 2,8 18 10 NW 1022,3 10
24.09.2018 18:00:00 9,5 2,8 22 12 NW 1021,4 10
24.09.2018 17:00:00 10,2 2,5 26 14 NW 1021,0 10
24.09.2018 16:00:00 10,9 3,9 26 14 W 1020,5 10
24.09.2018 15:00:00 10,0 5,6 18 10 WNW 1020,0 10
24.09.2018 14:00:00 10,2 4,1 16 9 WNW 1019,6 10
24.09.2018 13:00:00 11,4 3,2 18 10 WNW 1019,0 10
24.09.2018 12:00:00 10,9 3,7 15 8 WNW 1018,5 10
24.09.2018 11:00:00 10,2 3,7 18 10 NNW 1017,8 10
24.09.2018 10:00:00 10,0 3,5 24 13 NNW 1016,6 10
24.09.2018 09:00:00 9,0 4,8 15 8 NW 1015,5 10
24.09.2018 08:00:00 7,2 4,7 11 6 NW 1014,4 10
24.09.2018 07:00:00 7,2 4,7 15 8 WNW 1013,1 10
24.09.2018 06:00:00 7,0 4,3 13 7 WNW 1011,8 10
24.09.2018 05:00:00 5,2 4,5 0 0 N 1011,3 10
24.09.2018 04:00:00 5,5 4,6 0 0 N 1009,8 10
24.09.2018 03:00:00 6,4 4,7 0 0 N 1008,9 10
24.09.2018 02:00:00 7,7 4,5 13 7 NNW 1008,5 10
24.09.2018 01:00:00 8,2 3,8 8 4 NNW 1007,4 10
24.09.2018 00:00:00 10,6 4,7 16 9 WNW 1007,0 10
23.09.2018 23:00:00 10,2 5,0 22 12 NW 1006,6 10
23.09.2018 22:00:00 9,9 5,9 21 11 WNW 1006,2 10
23.09.2018 21:00:00 10,8 6,2 21 11 NW 1006,1 10
23.09.2018 20:00:00 8,6 5,3 5 3 NNW 1005,8 10
23.09.2018 19:00:00 10,0 6,2 9 5 NW 1005,8 10
23.09.2018 18:00:00 11,6 6,9 22 12 W 1005,8 10
23.09.2018 17:00:00 12,2 6,9 26 14 W 1006,0 10
23.09.2018 16:00:00 12,3 6,8 29 16 W 1006,7 10
23.09.2018 15:00:00 11,8 6,9 24 13 W 1006,6 10
23.09.2018 14:00:00 13,6 6,9 31 17 W 1006,9 10
23.09.2018 13:00:00 13,8 6,9 31 17 WSW 1007,4 10
23.09.2018 12:00:00 12,6 6,4 29 16 W 1007,8 10
23.09.2018 11:00:00 12,5 6,3 35 19 W 1007,6 10
23.09.2018 10:00:00 11,9 5,7 34 18 W 1007,6 10
23.09.2018 09:00:00 12,1 5,5 34 18 W 1007,3 10
23.09.2018 08:00:00 11,3 6,0 34 18 W 1007,2 10
23.09.2018 07:00:00 11,4 6,3 34 18 W 1007,0 10
23.09.2018 06:00:00 11,4 6,5 31 17 W 1007,1 10
23.09.2018 05:00:00 11,7 6,2 35 19 W 1007,1 10
23.09.2018 04:00:00 11,9 6,6 37 20 W 1007,3 10
23.09.2018 03:00:00 12,0 6,3 35 19 W 1007,3 10
23.09.2018 02:00:00 12,0 6,9 37 20 W 1007,1 10
23.09.2018 01:00:00 12,1 7,4 41 22 W 1006,9 10
23.09.2018 00:00:00 12,1 7,4 39 21 W 1006,7 10
22.09.2018 23:00:00 12,2 7,7 39 21 W 1006,5 10
22.09.2018 22:00:00 12,2 7,1 39 21 WSW 1006,5 10
22.09.2018 21:00:00 12,6 6,4 39 21 W 1006,7 10
22.09.2018 20:00:00 12,8 5,5 37 20 W 1006,6 10
22.09.2018 19:00:00 12,9 6,0 37 20 WSW 1006,6 10
22.09.2018 18:00:00 12,1 7,6 26 14 W 1007,0 10
22.09.2018 17:00:00 13,0 7,7 16 9 W 1007,2 10
22.09.2018 16:00:00 12,6 5,5 29 16 W 1007,6 10
22.09.2018 15:00:00 12,8 8,5 26 14 WSW 1007,5 10
22.09.2018 14:00:00 11,4 8,6 35 19 WSW 1007,4 6
22.09.2018 13:00:00 14,3 7,1 41 22 WSW 1007,2 10
22.09.2018 12:00:00 13,6 6,5 39 21 WSW 1007,3 10
22.09.2018 11:00:00 13,7 7,0 39 21 WSW 1007,2 10
22.09.2018 10:00:00 13,0 6,6 37 20 W 1006,9 10
22.09.2018 09:00:00 12,4 5,6 41 22 W 1006,1 10
22.09.2018 08:00:00 12,5 6,1 39 21 W 1005,4 10
22.09.2018 07:00:00 12,1 5,9 41 22 W 1004,4 10
22.09.2018 06:00:00 11,9 5,3 44 24 W 1003,2 10
22.09.2018 05:00:00 11,9 6,4 42 23 W 1002,4 10
22.09.2018 04:00:00 12,2 6,7 41 22 W 1002,1 10
22.09.2018 03:00:00 12,5 7,8 35 19 WSW 1001,2 10
22.09.2018 02:00:00 11,3 8,7 29 16 SW 1000,9 10
22.09.2018 01:00:00 9,1 7,5 29 16 SW 1001,0 10
22.09.2018 00:00:00 11,3 8,9 39 21 SW 999,7 10
21.09.2018 23:00:00 12,6 7,1 42 23 SW 999,1 10
21.09.2018 22:00:00 12,2 7,1 28 15 S 998,8 10
21.09.2018 21:00:00 13,4 6,5 29 16 SSW 998,4 10
21.09.2018 20:00:00 13,8 6,6 34 18 SW 998,3 10
21.09.2018 19:00:00 14,2 7,9 29 16 SW 998,4 10
21.09.2018 18:00:00 14,3 9,3 24 13 SW 998,1 10
21.09.2018 17:00:00 14,3 9,7 35 19 WSW 999,0 10
21.09.2018 16:00:00 14,7 12,2 34 18 SW 998,1 10
21.09.2018 15:00:00 16,3 13,0 44 24 SW 997,7 10
21.09.2018 14:00:00 21,4 14,5 26 14 S 995,8 10
21.09.2018 13:00:00 21,3 14,2 35 19 S 996,4 10
21.09.2018 12:00:00 21,7 13,8 44 24 SSE 996,8 10
21.09.2018 11:00:00 20,1 13,5 34 18 SSE 997,8 10
21.09.2018 10:00:00 19,3 13,9 22 12 SSE 999,0 10
21.09.2018 09:00:00 18,1 13,6 28 15 SSE 1000,4 10
21.09.2018 08:00:00 17,2 13,3 18 10 ESE 1001,2 10
21.09.2018 07:00:00 15,8 12,9 18 10 SE 1002,3 10
21.09.2018 06:00:00 14,8 13,0 16 9 ESE 1004,1 10
21.09.2018 05:00:00 14,1 12,8 13 7 SE 1005,3 10
21.09.2018 04:00:00 14,8 13,8 18 10 ESE 1006,2 10
21.09.2018 03:00:00 14,6 13,6 15 8 SE 1007,1 10
21.09.2018 02:00:00 14,1 13,3 15 8 SE 1008,2 10
21.09.2018 01:00:00 14,3 13,0 9 5 SSE 1008,9 10
21.09.2018 00:00:00 15,4 14,3 11 6 S 1009,4 10
20.09.2018 23:00:00 13,3 12,8 8 4 SE 1010,1 10
20.09.2018 22:00:00 13,8 13,2 8 4 E 1010,6 10
20.09.2018 21:00:00 14,3 13,5 4 2 - 1011,1 10
20.09.2018 20:00:00 14,4 13,6 5 3 SE 1011,4 10
20.09.2018 19:00:00 14,5 13,5 5 3 SSW 1011,9 10
20.09.2018 18:00:00 14,4 13,6 11 6 SW 1012,1 10
20.09.2018 17:00:00 14,2 13,4 13 7 S 1012,4 10
20.09.2018 16:00:00 14,3 13,3 18 10 SW 1012,8 5
20.09.2018 15:00:00 14,3 13,5 16 9 W 1012,9 3,6
20.09.2018 14:00:00 15,2 13,6 16 9 SW 1012,8 10
20.09.2018 13:00:00 15,4 14,1 22 12 WSW 1012,6 10
20.09.2018 12:00:00 15,8 14,3 21 11 W 1012,5 5
20.09.2018 11:00:00 16,7 14,9 18 10 SW 1012,4 8

tt = Température de l'air
td = dewpoint
ff = Vitesse du vent
dd = Direction du vent
ppp = reduced air pressure
vv = visibility

stations d'obs. à proximité